SCP
0 0 0 0 0 0 0 0 0 0 0 0 0 0 0 0 0 0 0 0 0 0 0 0 0 0 0 0 0 0 0 0 0 0 0 0 0 0 0 0 0 0 0
0 0 0 0 0 0 0 0 0 0 0 0 0 0 0 0 0 0 0 0 0 0 0 0 0 0 0 0 0 0 0 0 0 0 0 0 0 0 0 0 0 0 0
0 0 0 0 0 0 0 0 0 0 0 0 0 0 0 0 0 0 0 0 0 0 0 0 0 0 0 0 0 0 0 0 0 0 0 0 0 0 0 0 0 0 0
0 0 0 0 0 0 0 0 0 0 0 0 0 0 0 0 0 0 0 0 0 0 0 0 0 0 0 0 0 0 0 0 0 0 0 0 0 0 0 0 0 0 0
0 0 0 0 0 0 0 0 0 0 0 0 0 0 0 0 0 0 0 0 0 0 0 0 0 0 0 0 0 0 0 0 0 0 0 0 0 0 0 0 0 0 0
0 0 0 0 0 0 0 0 0 0 0 0 0 0 0 0 0 0 0 0 0 0 0 0 0 0 0 0 0 0 0 0 0 0 0 0 0 0 0 0 0 0 0
0 0 0 0 0 0 0 0 0 0 0 0 0 0 0 0 0 0 0 0 0 0 0 0 0 0 0 0 0 0 0 0 0 0 0 0 0 0 0 0 0 0 0
0 0 0 0 0 0 0 0 0 0 0 0 0 0 0 0 0 0 0 0 0 0 0 0 0 0 0 0 0 0 0 0 0 0 0 0 0 0 0 0 0 0 0
0 0 0 0 0 0 0 0 0 0 0 0 0 0 0 0 0 0 0 0 0 0 0 0 0 0 0 0 0 0 0 0 0 0 0 0 0 0 0 0 0 0 0
0 0 0 0 0 0 0 0 0 0 0 0 0 0 0 0 0 0 0 0 0 0 0 0 0 0 0 0 0 0 0 0 0 0 0 0 0 0 0 0 0 0 0
0 0 0 0 0 0 0 0 0 0 0 0 0 0 0 0 0 0 0 0 0 0 0 0 0 0 0 0 0 0 0 0 0 0 0 0 0 0 0 0 0 0 0
0 0 0 0 0 0 0 0 0 0 0 0 0 0 0 0 0 0 0 0 0 0 0 0 0 0 0 0 0 0 0 0 0 0 0 0 0 0 0 0 0 0 0
0 0 0 0 0 0 0 0 0 0 0 0 0 0 0 0 0 0 0 0 0 0 0 0 0 0 0 0 0 0 0 0 0 0 0 0 0 0 0 0 0 0 0
0 0 0 0 0 0 0 0 0 0 0 0 0 0 0 0 0 0 0 0 0 0 0 0 0 0 0 0 0 0 0 0 0 0 0 0 0 0 0 0 0 0 0
0 0 0 0 0 0 0 0 0 0 0 0 0 0 0 0 0 0 0 0 0 0 0 0 0 0 0 0 0 0 0 0 0 0 0 0 0 0 0 0 0 0 0
0 0 0 0 0 0 0 0 0 0 0 0 0 0 0 0 0 0 0 0 0 0 0 0 0 0 0 0 0 0 0 0 0 0 0 0 0 0 0 0 0 0 0
0 0 0 0 0 0 0 0 0 0 0 0 0 0 0 0 0 0 0 0 0 0 0 0 0 0 0 0 0 0 0 0 0 0 0 0 0 0 0 0 0 0 0
0 0 0 0 0 0 0 0 0 0 0 0 0 0 0 0 0 0 0 0 0 0 0 0 0 0 0 0 0 0 0 0 0 0 0 0 0 0 0 0 0 0 0
0 0 0 0 0 0 0 0 0 0 0 0 0 0 0 0 0 0 0 0 0 0 0 0 0 0 0 0 0 0 0 0 0 0 0 0 0 0 0 0 0 0 0
0 0 0 0 0 0 0 0 0 0 0 0 0 0 0 0 0 0 0 0 0 0 0 0 0 0 0 0 0 0 0 0 0 0 0 0 0 0 0 0 0 0 0
0 0 0 0 0 0 0 0 0 0 0 0 0 0 0 0 0 0 0 0 0 0 0 0 0 0 0 0 0 0 0 0 0 0 0 0 0 0 0 0 0 0 0
0 0 0 0 0 0 0 0 0 0 0 0 0 0 0 0 0 0 0 0 0 0 0 0 0 0 0 0 0 0 0 0 0 0 0 0 0 0 0 0 0 0 0
0 0 0 0 0 0 0 0 0 0 0 0 0 0 0 0 0 0 0 0 0 0 0 0 0 0 0 0 0 0 0 0 0 0 0 0 0 0 0 0 0 0 0
0 0 0 0 0 0 0 0 0 0 0 0 0 0 0 0 0 0 0 0 0 0 0 0 0 0 0 0 0 0 0 0 0 0 0 0 0 0 0 0 0 0 0
0 0 0 0 0 0 0 0 0 0 0 0 0 0 0 0 0 0 0 0 0 0 0 0 0 0 0 0 0 0 0 0 0 0 0 0 0 0 0 0 0 0 0
0 0 0 0 0 0 0 0 0 0 0 0 0 0 0 0 0 0 0 0 0 0 0 0 0 0 0 0 0 0 0 0 0 0 0 0 0 0 0 0 0 0 0
Wind_Speed_500mb
24 26 20 22 21 20 16 7 7 10 15 20 25 27 29 33 32 36 40 41 34 31 31 31 30 31 32 34 36 39 40 41 41 41 41 42 43 45 48 50 50 53 55
33 28 29 27 28 28 23 22 18 13 22 23 25 26 25 29 35 35 32 30 23 33 29 28 29 30 29 31 33 36 36 36 37 38 39 39 40 44 47 49 50 52 53
45 40 38 35 36 32 29 29 25 17 18 28 31 31 30 31 33 33 30 26 19 20 25 27 27 25 26 29 31 32 33 33 34 36 37 38 42 44 46 47 49 50 52
56 50 48 43 40 42 36 37 33 28 20 26 34 35 35 34 33 33 33 28 22 16 14 18 23 24 25 27 27 27 29 30 31 32 33 35 38 41 43 44 47 49 52
61 56 52 51 50 48 44 43 46 39 28 26 37 38 37 35 37 34 30 26 24 20 14 11 10 15 19 21 22 22 23 26 27 28 29 31 34 37 39 41 44 47 50
63 62 62 61 60 56 53 47 50 50 39 30 37 42 41 40 38 35 33 30 26 24 20 15 10 6 6 5 7 12 18 22 22 24 26 29 31 34 37 40 43 46 49
69 69 68 65 70 66 58 53 63 65 55 46 40 45 41 41 39 38 37 34 32 28 24 18 13 8 4 2 5 8 11 15 19 21 24 26 29 33 37 39 43 45 48
77 81 79 74 73 72 66 70 60 74 62 54 48 49 38 40 46 43 43 40 36 31 26 21 16 11 8 6 7 7 10 14 17 19 21 24 28 32 36 39 41 44 48
76 85 87 82 76 79 76 76 72 84 80 63 62 46 25 27 49 50 48 44 41 36 30 24 20 15 11 9 8 9 12 14 17 19 21 23 27 32 37 40 43 47 48
84 86 88 90 84 81 85 81 79 76 80 76 67 66 60 31 34 31 52 49 45 43 35 30 25 20 16 12 10 12 14 17 19 22 24 26 29 34 39 45 49 49 51
86 88 90 93 92 88 86 89 91 86 90 85 77 68 77 52 41 34 38 59 57 50 41 35 30 25 20 15 13 15 18 20 22 25 27 30 33 39 45 50 55 58 55
80 89 93 95 92 90 90 92 84 90 92 94 86 76 79 81 66 51 35 37 48 48 45 39 35 29 23 18 17 19 21 23 25 28 32 36 40 45 50 55 60 62 58
82 86 92 95 95 90 89 88 87 102 99 97 84 81 76 83 71 56 45 34 38 39 45 45 38 32 25 21 19 22 23 24 27 30 35 39 44 50 54 58 61 64 65
80 76 86 93 92 91 92 87 96 104 99 91 78 80 79 83 81 68 57 50 33 39 45 36 36 31 26 24 20 24 25 26 28 32 35 39 44 48 53 58 63 68 66
78 73 76 86 87 89 87 96 86 82 80 81 83 79 82 82 71 70 56 50 47 42 45 40 30 26 25 24 22 24 26 28 31 35 38 41 45 51 57 63 69 67 74
79 74 72 81 84 83 86 80 82 85 88 88 80 82 84 77 70 66 55 50 48 40 35 34 29 21 21 20 24 25 27 29 33 37 41 45 50 57 63 70 68 75 78
82 73 69 76 83 87 86 86 90 84 92 79 81 84 82 74 69 63 57 52 50 42 27 27 27 22 23 21 25 26 30 32 34 39 43 49 56 63 72 68 73 78 83
78 70 64 68 69 85 84 88 85 95 81 84 88 84 78 74 68 63 59 56 51 36 26 24 23 28 20 25 26 30 32 36 39 42 48 57 63 70 67 75 77 80 86
73 71 68 70 69 75 78 89 93 85 87 91 89 84 80 78 73 67 61 57 46 30 28 25 26 26 25 26 29 32 35 41 44 47 54 59 66 67 74 80 80 79 85
70 71 73 72 72 78 78 83 88 82 91 91 83 76 80 80 76 70 66 54 35 29 29 28 27 28 29 29 32 34 40 44 48 52 58 63 69 74 79 78 79 84 83
65 66 72 72 74 82 79 83 81 89 89 89 78 78 78 75 69 67 62 41 30 30 30 25 31 34 31 30 34 39 46 50 55 59 64 67 75 77 79 78 82 83 59
66 65 72 74 77 79 83 81 82 84 88 87 79 79 74 72 69 62 42 30 28 25 30 29 39 35 33 34 37 42 46 54 62 64 71 76 73 79 79 81 77 58 75
67 66 70 74 76 76 80 79 79 81 84 81 78 79 80 78 73 64 40 29 25 32 40 37 41 41 38 36 41 47 48 53 59 64 68 79 75 83 85 87 91 81 67
68 67 70 71 70 75 75 75 74 75 78 79 75 75 82 78 77 63 35 18 26 40 39 46 46 45 39 40 47 50 51 54 60 61 58 75 78 83 83 92 89 55 52
66 67 67 70 68 73 71 73 72 74 78 73 70 77 83 75 73 51 35 36 38 46 44 52 58 52 44 43 46 52 53 53 59 56 56 63 65 81 91 82 66 83 87
59 58 60 66 68 68 70 71 72 71 75 74 69 73 73 75 71 59 55 53 45 45 49 47 46 44 42 47 47 49 50 46 48 52 45 56 67 67 77 91 90 84 68
Wind_Direction_500mb
218 201 237 244 222 210 199 222 238 231 207 186 176 174 164 164 155 149 150 141 128 109 98 92 86 81 77 71 67 62 53 45 46 46 43 41 37 38 40 38 35 32 29
234 232 241 240 230 233 243 228 210 235 220 207 199 194 188 170 171 167 167 168 157 126 115 102 95 88 79 75 69 65 56 47 42 40 41 38 36 39 36 36 33 30 27
237 243 237 239 239 232 247 230 213 212 237 216 204 198 196 187 177 176 178 183 186 167 133 110 102 93 85 79 72 65 57 46 39 38 39 38 42 38 36 33 31 26 23
235 240 242 239 240 234 234 235 218 210 230 227 212 203 200 196 191 188 188 191 190 188 176 146 117 102 93 83 75 62 54 41 35 34 35 34 33 34 32 29 26 23 19
232 233 241 240 243 237 234 227 227 217 210 235 219 208 203 200 201 202 205 204 196 198 197 178 154 127 103 88 76 63 43 31 28 27 25 25 24 26 26 24 21 18 14
236 231 234 238 238 234 232 236 233 217 214 229 225 213 206 207 208 206 209 213 208 204 200 193 177 151 122 82 50 36 25 19 20 20 19 18 18 17 18 16 13 11 8
235 238 236 237 236 237 241 238 222 218 209 217 224 209 207 210 212 212 215 215 215 210 207 205 205 214 229 290 353 11 12 10 12 11 10 9 7 6 6 7 4 3 1
236 234 237 237 240 237 233 230 234 220 210 216 226 215 205 212 215 216 221 220 219 217 215 215 218 227 244 280 312 340 352 359 1 358 355 354 355 356 356 357 357 356 353
240 235 238 235 238 240 245 243 243 228 216 223 220 217 197 212 214 218 222 226 225 224 221 220 224 233 246 268 295 321 335 339 340 339 338 340 344 347 347 346 345 347 344
239 236 236 233 234 242 241 242 248 243 231 228 218 220 223 217 192 200 219 224 228 229 225 225 229 235 244 264 291 311 320 325 326 328 328 330 333 335 336 333 335 339 337
239 236 234 234 233 237 240 241 246 240 232 230 235 229 222 220 218 211 206 217 223 227 226 228 232 238 249 266 285 301 309 312 319 322 320 321 325 326 326 328 331 331 331
244 237 235 234 236 238 239 237 236 239 232 232 231 237 232 222 218 215 211 214 224 225 228 229 233 238 248 262 279 295 303 309 316 321 319 320 322 323 326 327 329 328 328
250 243 237 235 233 236 236 241 240 240 237 228 238 237 237 229 231 227 230 217 209 215 220 228 231 240 248 262 273 288 298 310 317 321 321 322 323 325 326 326 328 325 325
256 254 244 237 236 238 236 242 238 242 238 233 237 242 235 231 230 234 234 230 200 206 216 225 227 239 247 256 268 285 298 308 316 322 324 326 326 326 327 327 327 326 324
258 255 246 238 236 240 234 241 238 239 238 237 241 240 237 233 228 230 233 236 230 208 212 214 221 236 236 244 269 281 294 308 316 320 323 324 324 327 327 327 327 325 322
261 255 248 236 236 240 235 237 237 239 239 234 236 239 238 232 227 229 229 227 220 221 196 211 226 232 239 244 270 282 295 305 311 317 321 322 325 326 327 327 326 321 320
262 257 251 239 236 237 235 235 239 240 233 235 241 240 238 231 227 226 220 214 207 206 212 211 224 232 239 256 273 285 294 301 311 313 317 319 323 324 326 325 325 323 321
261 259 250 241 240 236 237 239 239 234 236 244 242 241 234 226 223 220 215 203 201 208 218 224 226 232 236 262 276 286 298 302 305 309 314 318 321 322 322 323 325 324 321
261 254 247 238 239 238 237 238 238 238 244 244 241 238 228 222 214 210 203 201 201 211 224 226 229 231 247 263 277 286 294 300 305 309 316 315 317 318 322 323 325 319 320
260 252 246 243 241 241 241 241 239 243 242 241 238 233 227 223 215 209 202 201 204 217 223 235 232 241 248 261 272 285 291 297 304 310 310 313 318 320 321 321 319 321 320
260 252 245 244 242 241 240 244 241 242 242 239 232 227 222 215 211 208 202 200 215 222 235 240 246 243 252 267 281 289 296 303 306 309 311 315 320 317 319 319 321 322 316
262 252 244 243 241 243 241 242 243 243 240 238 230 221 213 206 199 198 198 213 225 247 258 256 241 248 261 273 284 292 298 306 308 314 316 312 315 318 319 321 322 313 313
264 258 248 244 243 244 245 244 243 243 240 235 226 216 206 199 198 200 201 219 246 278 289 242 244 256 269 278 284 292 298 300 305 311 312 311 319 317 323 321 317 314 312
261 257 249 247 249 248 246 243 242 243 238 232 222 220 210 210 202 204 207 241 277 291 257 242 250 259 267 277 282 288 293 299 302 308 314 309 315 316 316 314 318 319 315
259 256 250 244 248 249 247 245 242 239 234 225 219 217 210 214 209 196 222 250 274 281 243 242 254 265 267 277 285 288 294 300 303 305 304 302 309 313 319 322 321 320 326
260 257 252 246 247 246 244 243 240 234 226 216 210 214 210 213 204 217 232 248 274 282 261 259 265 267 271 275 276 280 289 293 297 302 302 302 307 316 323 325 323 335 338
Wind_Speed_850mb
24 26 20 22 21 20 16 7 7 10 15 20 25 27 29 33 32 36 40 41 34 31 31 31 30 31 32 34 36 39 40 41 41 41 41 42 43 45 48 50 50 53 55
33 28 29 27 28 28 23 22 18 13 22 23 25 26 25 29 35 35 32 30 23 33 29 28 29 30 29 31 33 36 36 36 37 38 39 39 40 44 47 49 50 52 53
45 40 38 35 36 32 29 29 25 17 18 28 31 31 30 31 33 33 30 26 19 20 25 27 27 25 26 29 31 32 33 33 34 36 37 38 42 44 46 47 49 50 52
56 50 48 43 40 42 36 37 33 28 20 26 34 35 35 34 33 33 33 28 22 16 14 18 23 24 25 27 27 27 29 30 31 32 33 35 38 41 43 44 47 49 52
61 56 52 51 50 48 44 43 46 39 28 26 37 38 37 35 37 34 30 26 24 20 14 11 10 15 19 21 22 22 23 26 27 28 29 31 34 37 39 41 44 47 50
63 62 62 61 60 56 53 47 50 50 39 30 37 42 41 40 38 35 33 30 26 24 20 15 10 6 6 5 7 12 18 22 22 24 26 29 31 34 37 40 43 46 49
69 69 68 65 70 66 58 53 63 65 55 46 40 45 41 41 39 38 37 34 32 28 24 18 13 8 4 2 5 8 11 15 19 21 24 26 29 33 37 39 43 45 48
77 81 79 74 73 72 66 70 60 74 62 54 48 49 38 40 46 43 43 40 36 31 26 21 16 11 8 6 7 7 10 14 17 19 21 24 28 32 36 39 41 44 48
76 85 87 82 76 79 76 76 72 84 80 63 62 46 25 27 49 50 48 44 41 36 30 24 20 15 11 9 8 9 12 14 17 19 21 23 27 32 37 40 43 47 48
84 86 88 90 84 81 85 81 79 76 80 76 67 66 60 31 34 31 52 49 45 43 35 30 25 20 16 12 10 12 14 17 19 22 24 26 29 34 39 45 49 49 51
86 88 90 93 92 88 86 89 91 86 90 85 77 68 77 52 41 34 38 59 57 50 41 35 30 25 20 15 13 15 18 20 22 25 27 30 33 39 45 50 55 58 55
80 89 93 95 92 90 90 92 84 90 92 94 86 76 79 81 66 51 35 37 48 48 45 39 35 29 23 18 17 19 21 23 25 28 32 36 40 45 50 55 60 62 58
82 86 92 95 95 90 89 88 87 102 99 97 84 81 76 83 71 56 45 34 38 39 45 45 38 32 25 21 19 22 23 24 27 30 35 39 44 50 54 58 61 64 65
80 76 86 93 92 91 92 87 96 104 99 91 78 80 79 83 81 68 57 50 33 39 45 36 36 31 26 24 20 24 25 26 28 32 35 39 44 48 53 58 63 68 66
78 73 76 86 87 89 87 96 86 82 80 81 83 79 82 82 71 70 56 50 47 42 45 40 30 26 25 24 22 24 26 28 31 35 38 41 45 51 57 63 69 67 74
79 74 72 81 84 83 86 80 82 85 88 88 80 82 84 77 70 66 55 50 48 40 35 34 29 21 21 20 24 25 27 29 33 37 41 45 50 57 63 70 68 75 78
82 73 69 76 83 87 86 86 90 84 92 79 81 84 82 74 69 63 57 52 50 42 27 27 27 22 23 21 25 26 30 32 34 39 43 49 56 63 72 68 73 78 83
78 70 64 68 69 85 84 88 85 95 81 84 88 84 78 74 68 63 59 56 51 36 26 24 23 28 20 25 26 30 32 36 39 42 48 57 63 70 67 75 77 80 86
73 71 68 70 69 75 78 89 93 85 87 91 89 84 80 78 73 67 61 57 46 30 28 25 26 26 25 26 29 32 35 41 44 47 54 59 66 67 74 80 80 79 85
70 71 73 72 72 78 78 83 88 82 91 91 83 76 80 80 76 70 66 54 35 29 29 28 27 28 29 29 32 34 40 44 48 52 58 63 69 74 79 78 79 84 83
65 66 72 72 74 82 79 83 81 89 89 89 78 78 78 75 69 67 62 41 30 30 30 25 31 34 31 30 34 39 46 50 55 59 64 67 75 77 79 78 82 83 59
66 65 72 74 77 79 83 81 82 84 88 87 79 79 74 72 69 62 42 30 28 25 30 29 39 35 33 34 37 42 46 54 62 64 71 76 73 79 79 81 77 58 75
67 66 70 74 76 76 80 79 79 81 84 81 78 79 80 78 73 64 40 29 25 32 40 37 41 41 38 36 41 47 48 53 59 64 68 79 75 83 85 87 91 81 67
68 67 70 71 70 75 75 75 74 75 78 79 75 75 82 78 77 63 35 18 26 40 39 46 46 45 39 40 47 50 51 54 60 61 58 75 78 83 83 92 89 55 52
66 67 67 70 68 73 71 73 72 74 78 73 70 77 83 75 73 51 35 36 38 46 44 52 58 52 44 43 46 52 53 53 59 56 56 63 65 81 91 82 66 83 87
59 58 60 66 68 68 70 71 72 71 75 74 69 73 73 75 71 59 55 53 45 45 49 47 46 44 42 47 47 49 50 46 48 52 45 56 67 67 77 91 90 84 68
Wind_Direction_850mb
218 201 237 244 222 210 199 222 238 231 207 186 176 174 164 164 155 149 150 141 128 109 98 92 86 81 77 71 67 62 53 45 46 46 43 41 37 38 40 38 35 32 29
234 232 241 240 230 233 243 228 210 235 220 207 199 194 188 170 171 167 167 168 157 126 115 102 95 88 79 75 69 65 56 47 42 40 41 38 36 39 36 36 33 30 27
237 243 237 239 239 232 247 230 213 212 237 216 204 198 196 187 177 176 178 183 186 167 133 110 102 93 85 79 72 65 57 46 39 38 39 38 42 38 36 33 31 26 23
235 240 242 239 240 234 234 235 218 210 230 227 212 203 200 196 191 188 188 191 190 188 176 146 117 102 93 83 75 62 54 41 35 34 35 34 33 34 32 29 26 23 19
232 233 241 240 243 237 234 227 227 217 210 235 219 208 203 200 201 202 205 204 196 198 197 178 154 127 103 88 76 63 43 31 28 27 25 25 24 26 26 24 21 18 14
236 231 234 238 238 234 232 236 233 217 214 229 225 213 206 207 208 206 209 213 208 204 200 193 177 151 122 82 50 36 25 19 20 20 19 18 18 17 18 16 13 11 8
235 238 236 237 236 237 241 238 222 218 209 217 224 209 207 210 212 212 215 215 215 210 207 205 205 214 229 290 353 11 12 10 12 11 10 9 7 6 6 7 4 3 1
236 234 237 237 240 237 233 230 234 220 210 216 226 215 205 212 215 216 221 220 219 217 215 215 218 227 244 280 312 340 352 359 1 358 355 354 355 356 356 357 357 356 353
240 235 238 235 238 240 245 243 243 228 216 223 220 217 197 212 214 218 222 226 225 224 221 220 224 233 246 268 295 321 335 339 340 339 338 340 344 347 347 346 345 347 344
239 236 236 233 234 242 241 242 248 243 231 228 218 220 223 217 192 200 219 224 228 229 225 225 229 235 244 264 291 311 320 325 326 328 328 330 333 335 336 333 335 339 337
239 236 234 234 233 237 240 241 246 240 232 230 235 229 222 220 218 211 206 217 223 227 226 228 232 238 249 266 285 301 309 312 319 322 320 321 325 326 326 328 331 331 331
244 237 235 234 236 238 239 237 236 239 232 232 231 237 232 222 218 215 211 214 224 225 228 229 233 238 248 262 279 295 303 309 316 321 319 320 322 323 326 327 329 328 328
250 243 237 235 233 236 236 241 240 240 237 228 238 237 237 229 231 227 230 217 209 215 220 228 231 240 248 262 273 288 298 310 317 321 321 322 323 325 326 326 328 325 325
256 254 244 237 236 238 236 242 238 242 238 233 237 242 235 231 230 234 234 230 200 206 216 225 227 239 247 256 268 285 298 308 316 322 324 326 326 326 327 327 327 326 324
258 255 246 238 236 240 234 241 238 239 238 237 241 240 237 233 228 230 233 236 230 208 212 214 221 236 236 244 269 281 294 308 316 320 323 324 324 327 327 327 327 325 322
261 255 248 236 236 240 235 237 237 239 239 234 236 239 238 232 227 229 229 227 220 221 196 211 226 232 239 244 270 282 295 305 311 317 321 322 325 326 327 327 326 321 320
262 257 251 239 236 237 235 235 239 240 233 235 241 240 238 231 227 226 220 214 207 206 212 211 224 232 239 256 273 285 294 301 311 313 317 319 323 324 326 325 325 323 321
261 259 250 241 240 236 237 239 239 234 236 244 242 241 234 226 223 220 215 203 201 208 218 224 226 232 236 262 276 286 298 302 305 309 314 318 321 322 322 323 325 324 321
261 254 247 238 239 238 237 238 238 238 244 244 241 238 228 222 214 210 203 201 201 211 224 226 229 231 247 263 277 286 294 300 305 309 316 315 317 318 322 323 325 319 320
260 252 246 243 241 241 241 241 239 243 242 241 238 233 227 223 215 209 202 201 204 217 223 235 232 241 248 261 272 285 291 297 304 310 310 313 318 320 321 321 319 321 320
260 252 245 244 242 241 240 244 241 242 242 239 232 227 222 215 211 208 202 200 215 222 235 240 246 243 252 267 281 289 296 303 306 309 311 315 320 317 319 319 321 322 316
262 252 244 243 241 243 241 242 243 243 240 238 230 221 213 206 199 198 198 213 225 247 258 256 241 248 261 273 284 292 298 306 308 314 316 312 315 318 319 321 322 313 313
264 258 248 244 243 244 245 244 243 243 240 235 226 216 206 199 198 200 201 219 246 278 289 242 244 256 269 278 284 292 298 300 305 311 312 311 319 317 323 321 317 314 312
261 257 249 247 249 248 246 243 242 243 238 232 222 220 210 210 202 204 207 241 277 291 257 242 250 259 267 277 282 288 293 299 302 308 314 309 315 316 316 314 318 319 315
259 256 250 244 248 249 247 245 242 239 234 225 219 217 210 214 209 196 222 250 274 281 243 242 254 265 267 277 285 288 294 300 303 305 304 302 309 313 319 322 321 320 326
260 257 252 246 247 246 244 243 240 234 226 216 210 214 210 213 204 217 232 248 274 282 261 259 265 267 271 275 276 280 289 293 297 302 302 302 307 316 323 325 323 335 338